This is the latest recevied weather packets stored in our database for station/object SV9TNF-56. If no packets are shown the sender has not sent any weather packets the latest 10 day(s).
| Time | Temp. | Humidity | Pressure | Rain* | Wind** | Luminosity | Snow |
|---|---|---|---|---|---|---|---|
| 1788577051 | 23.89° C | 75% | 1011.2 hPa | 0 mm | 18.33 m/s, 284° | - | - |
| 1788576751 | 24.44° C | 74% | 1011.2 hPa | 0 mm | 28.61 m/s, 342° | - | - |
| 1788576451 | 24.44° C | 73% | 1011.5 hPa | 0 mm | 25.48 m/s, 335° | - | - |
| 1788576151 | 24.44° C | 72% | 1011.2 hPa | 0 mm | 23.25 m/s, 318° | - | - |
| 1788575851 | 24.44° C | 70% | 1011.2 hPa | 0 mm | 24.59 m/s, 316° | - | - |
| 1788575551 | 24.44° C | 72% | 1011.2 hPa | 0 mm | 22.8 m/s, 348° | - | - |
| 1788575251 | 24.44° C | 71% | 1010.8 hPa | 0 mm | 26.82 m/s, 312° | - | - |
| 1788574951 | 24.44° C | 69% | 1010.8 hPa | 0 mm | 32.63 m/s, 300° | - | - |
| 1788574651 | 24.44° C | 69% | 1010.8 hPa | 0 mm | 28.16 m/s, 6° | - | - |
| 1788574351 | 24.44° C | 65% | 1010.8 hPa | 0 mm | 34.42 m/s, 352° | - | - |
| 1788574051 | 24.44° C | 65% | 1010.8 hPa | 0 mm | 28.61 m/s, 312° | - | - |
| 1788573751 | 25° C | 63% | 1011.2 hPa | 0 mm | 30.85 m/s, 306° | - | - |
| 1788573450 | 25° C | 62% | 1011.2 hPa | 0 mm | 26.82 m/s, 336° | - | - |
| 1788573150 | 25° C | 61% | 1010.8 hPa | 0 mm | 33.53 m/s, 234° | - | - |
| 1788572850 | 25° C | 60% | 1010.8 hPa | 0 mm | 25.48 m/s, 281° | - | - |
| 1788572550 | 25° C | 61% | 1010.8 hPa | 0 mm | 35.76 m/s, 295° | - | - |
| 1788572249 | 25° C | 61% | 1010.8 hPa | 0 mm | 29.06 m/s, 282° | - | - |
| 1788571949 | 25° C | 61% | 1010.8 hPa | 0 mm | 33.53 m/s, 324° | - | - |
| 1788571649 | 25° C | 63% | 1010.8 hPa | 0 mm | 28.61 m/s, 276° | - | - |
| 1788571349 | 25° C | 61% | 1011.2 hPa | 0 mm | 28.61 m/s, 312° | - | - |
| 1788571049 | 25° C | 60% | 1011.2 hPa | 0 mm | 32.19 m/s, 283° | - | - |
| 1788570750 | 25° C | 59% | 1011.2 hPa | 0 mm | 29.5 m/s, 294° | - | - |
| 1788570449 | 25° C | 58% | 1011.5 hPa | 0 mm | 30.85 m/s, 312° | - | - |
| 1788570150 | 25° C | 58% | 1011.2 hPa | 0 mm | 24.59 m/s, 276° | - | - |
| 1788569849 | 25° C | 58% | 1011.2 hPa | 0 mm | 30.4 m/s, 273° | - | - |
* Rain latest hour (hover to see other rain measurements)
** Current wind speed in m/s (hover to see current wind gust speed)